GFSMW_850_spd_105.txt.gz
Wind_Speed
13 14 15 15 18 20 22 21 24 26 26 30 36 39 44 46 50 47 42 39 36 37 35 34 32 30 29 30 28 27 27 27 26 25 29 29 28 27 26 26 22 21 21
11 13 15 15 15 15 16 16 20 25 28 30 33 38 39 45 48 49 48 42 38 37 38 37 34 33 30 30 29 28 28 28 27 26 29 19 29 28 26 27 29 30 27
15 18 20 21 21 20 17 15 16 22 25 30 31 32 32 33 35 46 51 47 41 38 39 39 36 35 32 31 30 28 27 28 28 29 24 10 10 20 27 30 34 32 30
16 20 22 23 24 24 24 23 18 19 23 25 31 31 37 38 44 45 51 50 45 42 40 39 38 36 34 33 31 28 27 28 29 27 30 30 12 12 11 27 31 34 32
15 18 22 26 28 28 27 26 26 23 20 25 31 34 39 41 41 43 48 48 44 44 42 40 41 37 35 32 32 31 31 30 30 32 30 30 32 25 17 15 21 25 27
19 21 22 24 25 27 28 27 26 27 24 22 30 38 40 41 37 40 46 49 48 43 44 41 37 37 35 32 34 30 29 29 29 33 31 32 32 32 28 24 20 21 25
21 25 27 27 27 26 26 24 23 27 23 23 29 36 41 41 40 37 44 49 51 46 46 40 35 37 38 36 33 30 28 29 29 32 31 31 31 34 31 27 17 18 24
23 25 25 25 27 27 25 22 22 25 20 19 23 31 37 40 41 40 38 48 48 48 48 46 45 43 41 36 31 28 26 28 27 29 30 31 28 30 34 27 27 20 23
21 23 24 24 27 28 26 25 22 19 18 15 12 18 28 35 39 40 39 41 41 41 43 43 41 41 34 30 28 27 26 25 28 26 28 26 24 24 26 28 31 30 20
25 25 25 25 27 27 26 24 21 19 14 11 6 14 20 29 34 35 34 36 33 36 37 38 38 33 30 28 29 29 27 27 30 27 24 25 26 26 28 30 31 32 33
23 27 26 27 28 26 26 25 22 18 13 5 3 16 18 23 30 28 26 31 30 31 33 29 28 30 28 28 28 27 24 28 22 25 24 25 24 29 31 32 34 33 36
21 26 28 29 28 28 27 25 24 19 13 7 7 8 12 19 17 20 23 24 25 25 26 28 30 28 25 24 23 22 22 22 25 26 28 31 31 34 38 36 37 37 30
23 26 28 30 29 28 28 26 24 21 17 7 3 2 11 10 4 6 11 14 19 19 22 26 27 26 24 22 22 22 23 24 25 25 24 25 26 28 31 34 39 38 35
23 23 27 30 29 27 27 26 24 21 19 14 9 5 9 10 10 11 12 12 14 20 26 26 26 21 17 21 21 22 20 19 19 20 20 19 25 30 29 31 34 36 39
22 21 27 30 29 28 27 26 24 22 21 16 9 6 2 8 11 16 16 19 22 21 30 30 24 19 22 20 17 18 17 15 15 16 15 18 23 23 23 26 29 36 41
19 21 24 27 29 28 28 26 27 24 22 21 19 13 6 3 10 14 19 26 37 28 29 23 24 21 20 15 15 18 16 15 13 13 12 12 13 13 18 18 17 34 42
17 18 21 24 27 28 27 28 27 26 27 27 25 22 16 10 8 11 17 25 29 31 23 28 25 24 20 17 17 16 15 15 14 13 11 11 11 11 13 13 22 26 34
16 17 20 22 24 26 29 29 28 28 31 30 30 29 26 23 18 12 17 22 25 28 28 24 23 21 19 18 18 18 17 16 14 12 10 9 8 8 9 14 18 24 25
13 15 18 20 23 25 27 30 34 34 34 33 32 29 29 28 24 24 22 17 21 21 24 22 21 16 15 18 19 18 17 15 14 11 9 8 7 8 11 7 13 16 19
15 17 19 22 25 26 28 31 34 35 37 34 33 30 30 29 29 27 26 24 20 23 23 25 19 15 11 8 8 13 16 16 13 11 9 9 7 8 6 7 8 11 11
17 19 22 25 26 27 29 33 34 36 33 33 33 34 34 33 32 29 30 29 30 27 30 31 28 25 22 20 13 9 4 7 11 14 13 11 7 7 8 8 9 9 12
17 20 22 25 25 27 29 32 33 29 29 31 33 35 35 35 34 35 35 34 33 34 34 35 34 33 30 26 24 19 16 13 12 16 18 16 10 12 13 14 16 16 14
18 19 21 22 24 26 28 30 28 25 25 26 29 30 30 31 31 33 33 34 34 34 33 33 33 32 29 27 26 25 21 20 22 22 20 19 15 17 20 20 19 17 16
19 19 21 23 25 25 25 26 24 24 24 26 26 26 26 26 27 28 29 29 29 29 28 28 28 25 24 23 22 20 19 19 19 17 15 14 13 15 17 17 17 16 17
17 19 21 23 24 23 24 23 23 22 23 24 25 26 25 26 26 26 27 26 25 22 22 21 19 19 19 17 12 11 10 11 11 9 9 10 10 11 12 12 13 13 13
16 17 20 21 22 22 23 23 23 21 22 23 24 24 23 23 22 22 21 21 19 16 17 16 16 16 15 12 12 12 9 8 9 6 7 9 10 10 11 10 10 11 11

GFSMW_850_spd_108.txt.gz
Wind_Speed
3 5 8 9 10 11 12 17 21 20 22 26 22 25 34 38 34 36 42 41 41 38 35 38 38 37 34 33 32 29 29 27 25 23 26 23 25 25 25 25 24 26 24
4 7 10 12 13 14 15 15 15 18 19 19 20 25 28 30 33 31 35 45 45 43 38 37 40 40 37 35 34 32 31 30 26 25 23 12 22 28 27 28 25 28 25
9 12 14 14 15 16 18 19 20 19 19 21 24 27 27 30 29 31 34 48 50 49 45 41 41 44 41 39 37 34 31 31 28 26 20 9 10 15 28 32 31 28 29
10 13 17 19 20 19 19 20 23 25 25 22 20 21 27 35 35 33 36 43 52 53 49 45 43 46 44 42 38 34 31 28 29 26 27 28 13 8 8 20 25 24 28
13 16 18 20 21 22 23 24 26 28 29 28 25 24 27 33 35 33 33 38 45 50 51 49 45 46 45 44 40 35 33 27 24 26 27 26 30 28 16 15 12 21 30
13 15 18 20 21 22 24 26 29 29 30 31 29 30 31 31 34 37 34 38 41 47 50 50 47 47 45 44 40 36 33 31 27 24 24 28 31 32 29 23 17 16 17
15 17 19 21 21 23 25 27 28 31 31 31 31 31 33 31 38 39 36 35 37 44 49 50 48 48 44 42 41 37 34 31 31 32 29 27 24 22 22 22 20 20 18
16 18 20 21 22 23 24 28 29 30 30 29 28 30 32 36 34 44 43 34 34 41 45 47 48 47 45 41 42 39 33 31 31 33 31 31 31 29 28 29 26 23 29
14 18 21 22 23 25 27 30 30 30 28 25 25 27 30 34 34 39 44 38 31 33 38 40 43 44 44 41 38 37 33 30 31 32 30 29 28 28 26 25 29 31 16
17 19 21 21 21 23 26 27 26 27 25 21 20 22 19 22 30 33 38 41 33 33 33 36 39 41 43 38 34 33 35 30 29 30 29 28 28 26 25 24 25 25 31
16 19 21 21 20 21 25 27 25 25 22 17 13 12 14 20 26 28 31 35 35 35 36 31 33 43 44 42 36 33 32 28 30 27 27 27 28 25 23 25 27 28 28
16 17 21 21 21 23 26 27 25 22 21 12 10 6 10 16 16 20 24 28 33 35 32 31 36 38 41 39 36 37 33 33 30 29 27 25 24 24 26 27 30 30 31
15 17 20 22 26 28 28 27 26 25 21 16 11 4 3 8 11 8 14 18 24 30 31 32 36 38 41 39 34 35 33 30 25 21 20 20 21 25 26 28 31 33 34
15 18 20 23 27 28 27 26 25 23 20 18 15 10 6 2 8 2 3 7 11 23 24 31 38 39 39 31 34 35 28 22 22 23 24 25 26 26 28 29 31 33 34
14 17 20 24 27 27 26 26 24 24 20 19 19 18 14 7 3 11 9 6 8 14 26 31 34 36 32 31 32 29 23 23 20 21 20 21 21 23 25 27 29 30 34
13 15 18 23 25 26 26 25 26 26 24 23 22 22 19 15 6 8 12 17 19 23 25 31 34 32 32 30 27 24 22 16 15 15 17 16 17 16 17 21 23 27 30
12 15 19 20 22 25 25 26 27 27 29 29 26 25 24 24 20 10 4 11 21 27 30 31 36 37 34 28 23 19 16 15 17 17 16 15 16 16 15 14 15 17 22
11 14 16 19 21 22 25 27 28 28 30 31 33 30 30 28 26 23 20 18 20 24 27 26 23 20 27 24 19 17 15 19 19 17 16 15 14 13 12 11 13 16 18
11 12 14 18 22 25 27 29 32 33 33 35 35 35 33 33 32 32 29 25 17 21 23 24 25 19 17 15 16 15 16 18 16 13 12 12 11 11 11 8 10 11 10
14 15 17 20 23 25 28 31 34 35 38 36 35 34 35 37 37 35 34 32 28 27 25 27 27 23 20 14 13 12 17 17 15 12 10 12 9 9 8 7 7 7 7
14 16 20 23 25 25 26 30 31 34 33 33 35 36 37 37 37 37 37 37 37 35 35 34 33 31 28 23 17 13 11 11 8 7 7 7 4 5 8 9 9 9 9
16 17 18 21 23 25 27 28 29 27 28 30 32 34 34 35 36 37 37 38 37 37 38 38 38 36 36 31 27 23 19 16 15 17 17 15 11 9 9 11 12 11 9
16 15 16 18 21 22 24 26 25 23 24 26 29 29 29 30 31 32 33 34 34 35 35 34 33 32 31 28 29 27 24 22 23 22 20 17 14 14 17 17 15 15 15
15 15 17 20 20 21 22 22 21 22 23 25 26 27 29 28 28 29 29 29 29 28 26 26 25 24 22 23 22 20 20 18 18 17 15 14 13 13 15 15 14 14 14
15 16 17 18 19 19 22 22 20 19 21 22 22 23 23 23 26 29 28 27 26 23 22 22 21 20 20 18 14 12 11 10 10 9 10 11 11 10 10 10 10 11 12
14 15 16 17 19 20 22 24 23 21 21 22 23 23 21 21 19 17 22 25 22 20 19 18 18 17 16 14 13 13 10 9 9 7 8 9 10 10 9 9 9 9 9

GFSMW_850_spd_114.txt.gz
Wind_Speed
10 13 9 6 6 3 4 5 6 7 9 9 11 11 14 20 24 27 32 31 32 34 34 37 38 38 35 38 41 29 32 34 28 21 24 23 24 24 23 22 22 22 23
16 11 9 6 8 6 7 7 7 8 9 8 13 16 20 26 24 26 28 37 37 36 40 38 38 41 41 37 35 37 37 35 31 28 22 16 24 28 30 29 27 26 25
20 13 6 7 5 7 10 10 10 10 12 13 14 15 18 22 28 30 29 26 32 37 40 41 43 42 44 43 39 39 45 42 34 32 21 10 13 10 17 26 24 23 25
13 8 7 5 6 7 10 14 16 16 14 18 19 18 21 24 24 26 27 24 28 39 42 44 43 45 48 45 41 40 40 40 35 36 37 28 7 11 6 15 20 21 25
11 8 7 6 7 10 12 15 17 18 19 21 21 24 27 29 31 33 35 39 33 24 43 46 44 45 45 46 45 42 42 42 42 40 39 39 31 19 15 9 16 17 19
11 6 5 8 11 13 15 16 17 19 22 23 24 26 28 31 34 36 39 39 44 36 31 47 47 47 43 42 43 42 43 43 44 41 40 36 34 37 30 24 16 17 15
10 7 11 13 15 18 20 20 21 24 24 25 27 28 30 32 35 37 39 41 44 46 41 37 46 51 47 45 44 45 44 42 41 45 41 38 34 33 29 24 19 19 17
9 10 12 14 17 20 22 24 28 30 29 29 30 31 32 34 37 38 39 43 45 48 45 32 42 46 42 39 45 44 47 45 42 43 39 32 28 29 29 23 23 22 19
11 12 14 15 18 20 22 24 31 33 31 32 32 33 33 34 37 39 39 42 46 49 48 39 37 46 43 40 41 50 50 45 44 41 38 34 38 33 26 25 24 27 21
14 16 17 17 18 19 21 24 27 29 31 32 31 32 32 34 36 36 38 42 45 44 48 46 36 45 47 40 38 46 48 47 43 40 45 41 37 30 35 32 31 29 28
18 18 19 19 20 23 23 25 29 30 30 29 28 29 30 32 32 32 31 32 34 40 45 46 42 46 45 39 41 46 47 44 42 38 39 43 30 35 36 26 25 23 23
13 14 16 18 21 23 24 27 29 31 30 27 25 26 26 25 24 23 23 23 16 23 26 41 43 47 46 39 38 46 45 43 40 38 38 36 34 35 27 25 30 27 28
12 13 14 16 18 21 25 26 28 31 28 25 24 24 23 21 20 19 17 20 24 22 22 33 41 46 45 39 35 41 45 43 43 43 41 34 30 29 28 26 23 22 19
12 14 15 17 19 21 23 26 26 28 26 24 22 21 21 19 17 17 17 17 17 25 35 37 37 40 38 35 32 40 40 41 41 41 35 30 28 29 28 25 22 20 20
13 14 15 17 19 23 25 24 23 25 25 25 24 22 21 20 18 17 15 14 8 5 4 27 21 25 29 29 29 31 36 37 38 32 34 33 33 32 27 23 23 23 22
10 11 14 18 21 23 23 22 24 24 25 27 28 28 25 24 23 22 18 18 16 14 10 7 11 20 24 26 28 28 36 39 40 38 38 35 29 25 19 20 24 26 25
10 13 15 17 18 21 21 22 22 23 26 29 31 33 33 32 30 29 27 26 25 18 19 14 10 10 15 24 29 32 39 40 38 37 36 31 27 23 23 24 24 23 22
10 11 13 15 17 19 21 22 24 26 29 32 34 35 37 39 38 37 38 38 36 31 28 24 19 14 8 10 25 33 38 38 33 32 27 26 23 23 23 20 17 17 15
10 11 12 15 15 18 19 23 26 29 31 34 35 36 38 40 42 45 45 45 43 43 42 38 34 31 30 15 12 25 22 32 26 20 19 18 21 20 20 15 13 11 10
12 14 17 18 18 18 19 22 27 29 31 31 33 34 37 39 41 43 45 46 46 46 46 47 45 40 35 31 26 22 18 31 23 19 17 14 13 11 14 13 12 11 7
11 14 18 20 22 23 24 25 27 30 31 30 30 31 33 34 36 38 40 42 43 45 47 47 47 46 45 41 36 32 28 30 29 29 27 23 20 14 11 10 10 8 7
14 13 14 15 16 19 24 27 27 26 27 30 35 34 33 35 34 35 36 37 37 39 41 41 42 41 41 40 40 38 36 32 33 32 29 26 22 19 18 17 18 14 12
13 11 11 13 17 16 19 24 25 22 24 26 28 30 35 36 36 37 37 37 37 38 38 37 34 34 34 34 33 32 30 30 31 28 25 23 22 21 21 20 20 19 18
12 10 11 13 16 17 18 17 18 18 20 23 24 25 27 30 34 36 37 37 37 34 35 34 34 32 31 30 26 23 21 21 20 17 17 16 16 16 15 15 17 17 15
11 11 11 12 14 16 19 20 19 17 18 21 22 24 26 26 27 31 34 36 36 33 32 31 29 30 31 29 25 23 21 19 16 11 10 11 12 13 14 14 14 14 13
11 11 11 12 14 16 18 20 20 22 21 23 23 23 25 25 25 23 27 29 29 27 27 26 26 25 23 20 20 20 18 17 16 14 16 18 18 17 16 15 13 11 11

GFSMW_850_spd_117.txt.gz
Wind_Speed
27 20 16 14 10 6 2 5 8 10 13 13 14 17 19 25 28 22 26 29 31 35 34 33 37 40 42 45 37 36 32 31 29 26 25 23 21 21 22 22 23 24 24
30 24 16 10 7 4 3 4 5 10 12 13 14 16 21 23 24 29 26 23 33 29 38 37 38 41 43 42 49 40 37 32 33 31 28 21 24 29 28 27 26 25 25
35 28 22 17 9 8 6 7 10 12 14 16 18 18 18 21 25 28 33 29 29 28 32 39 40 43 41 41 42 44 43 40 38 37 27 15 17 23 32 34 32 31 30
31 28 22 17 11 7 7 11 12 15 16 18 20 21 22 24 24 26 29 33 35 34 28 33 37 45 43 42 40 42 42 45 41 40 38 32 16 14 10 20 24 26 29
27 26 22 16 11 8 11 14 16 18 20 21 21 23 25 26 29 31 31 32 34 40 37 32 33 39 45 45 41 45 44 40 44 45 45 44 34 20 18 14 19 20 23
29 24 19 12 11 11 13 15 18 22 23 24 25 25 26 27 29 31 34 35 35 39 43 45 37 35 41 46 46 45 46 42 42 44 44 48 45 43 25 23 18 21 20
27 22 19 16 14 16 18 21 24 27 30 29 28 28 28 29 31 32 33 35 39 41 41 44 48 41 37 46 47 44 43 40 43 45 43 46 47 47 41 32 24 24 20
24 21 19 18 18 18 21 24 26 28 29 29 30 30 30 30 31 33 35 38 40 42 43 44 46 48 38 37 48 44 42 42 42 42 46 42 45 46 39 34 34 27 24
20 22 17 14 15 18 23 26 28 28 29 31 32 32 30 30 32 34 36 39 40 41 41 44 45 46 45 39 42 46 42 42 44 45 45 45 46 48 40 35 29 29 27
20 16 12 12 16 21 24 26 27 28 29 29 29 30 31 31 32 34 35 36 39 39 38 40 43 44 46 42 40 45 45 42 43 47 45 45 46 45 38 34 28 23 30
18 15 13 13 17 22 26 27 28 29 29 29 28 27 27 29 31 31 31 32 35 35 37 39 42 46 47 47 42 47 50 45 47 48 50 46 47 43 36 34 30 29 33
15 12 14 18 22 24 28 29 29 28 28 27 26 25 24 25 26 26 25 23 27 32 34 35 35 36 42 46 41 50 48 49 49 49 51 49 47 44 38 35 39 36 32
15 16 19 21 23 26 27 27 27 26 26 26 24 23 21 21 22 21 21 21 20 22 27 35 34 29 28 40 46 47 48 46 44 46 50 49 47 42 50 44 39 27 34
16 16 19 21 23 24 25 25 25 24 24 24 24 24 22 20 19 17 17 16 16 16 21 26 30 29 27 30 41 45 46 44 44 45 47 44 42 38 45 41 37 35 38
15 14 18 21 22 23 24 23 22 22 23 24 26 26 26 24 19 18 16 15 15 17 13 11 11 23 30 35 39 39 41 40 37 38 36 40 41 33 32 35 38 33 31
13 15 16 17 20 22 21 21 23 24 24 25 27 28 29 30 29 28 26 22 23 28 20 15 19 8 20 27 28 30 34 31 31 35 38 39 38 36 36 34 36 34 32
12 11 13 15 16 18 20 24 26 26 26 27 27 28 30 32 36 36 36 37 38 38 39 29 32 28 14 21 16 25 31 24 30 33 36 36 35 33 31 37 36 31 30
10 11 12 13 14 16 19 21 24 26 27 28 29 29 32 35 38 40 41 42 44 46 47 44 43 41 37 27 22 26 24 26 30 29 30 32 33 31 33 32 30 29 25
11 12 13 13 14 17 19 21 24 27 28 29 28 30 32 37 39 42 44 45 47 49 50 50 51 50 45 36 31 26 25 25 25 19 15 15 28 25 25 24 24 23 19
13 15 16 19 22 22 20 22 26 30 34 32 28 26 29 32 36 38 41 44 46 49 50 52 51 51 51 45 39 36 30 35 31 26 24 17 13 16 13 18 20 20 16
12 15 15 16 18 20 21 20 22 25 26 29 32 31 31 33 34 34 36 37 40 42 46 48 49 49 48 48 45 40 39 37 36 36 33 30 20 19 17 14 13 15 14
14 14 13 12 12 15 18 21 21 18 18 21 26 32 34 35 34 35 36 38 40 41 42 41 42 43 42 41 40 39 39 37 36 35 33 29 26 26 24 23 21 19 15
14 9 9 10 11 10 12 16 17 15 17 21 24 26 30 34 35 36 37 38 38 40 41 41 41 40 37 34 31 31 30 29 30 27 26 23 22 24 24 22 21 19 16
12 7 8 10 12 12 12 13 14 16 19 22 25 27 28 30 33 35 37 37 38 38 37 37 37 36 36 35 32 30 26 22 22 20 20 20 20 20 19 17 17 17 16
9 8 9 12 15 16 19 18 17 18 21 21 23 25 27 29 30 33 36 37 36 33 33 34 32 33 33 29 27 26 26 24 22 20 19 19 19 18 17 17 16 15 14
8 9 10 10 12 15 18 19 18 18 20 23 23 24 25 26 27 28 28 29 31 29 27 27 27 25 23 22 23 22 21 19 17 16 20 22 21 21 19 17 15 13 13